Flag for Poland Weather past 2 weeks in Warsaw, Poland

Now
39 °F

Light rain. Passing clouds.


Feels Like: 32 °F
Forecast: 47 / 49 °F
Wind: 12 mph from Southwest

Location: Warsaw Okecie Airport

Current Time: Dec 22, 2014 at 2:31:49 AM

Latest Report: Dec 22, 2014 at 2:00 AM


Visibility: N/A

Pressure: 29.89 "Hg

Humidity: 93%

Dew point: 37 °F

Location of WarsawLocation

Historic Weather in Warsaw — Graph

°F

Warsaw temperature yesterday

Maximum temperature yesterday: 41 °F (at 12:30 PM)
Minimum temperature yesterday: 37 °F (at 2:30 AM)
Average temperature yesterday: 39 °F

Past Weeks' High & Low Weather Summary

 TemperatureHumidityPressure
High54 °F (Dec 19, 11:00 AM)100% (Dec 7, 3:00 AM)30.42 "Hg (Dec 7, 3:00 AM)
Low23 °F (Dec 9, 9:00 PM)57% (Dec 13, 1:00 AM)29.56 "Hg (Dec 13, 2:00 AM)
Average38 °F90%29.92 "Hg
* Reported Dec 7 1:00 AM — Dec 22 1:30 AM, Warsaw, Weather by CustomWeather, © 2014

Note: Actual official high and low records may vary slightly from our data, if they occured in-between our weather recording intervals... More about our weather records

Advertising

Warsaw weather history for previous 24 hours

 ConditionsComfort  
Time TempWeatherWind HumidityBarometerVisibility
1:30 AM
Dec 22
39 °FLight rain. Passing clouds.10 mph93%29.92 "HgN/A
1:00 AM39 °FLight rain. Passing clouds.9 mph93%29.92 "HgN/A
12:30 AM39 °FLight rain. Passing clouds.13 mph93%29.95 "HgN/A
12:00 AM41 °FLight rain. Passing clouds.10 mph81%29.95 "HgN/A
11:30 PM
Dec 21
41 °FLight rain. Passing clouds.10 mph81%29.98 "HgN/A
10:30 PM41 °FPassing clouds.12 mph81%29.98 "HgN/A
10:00 PM41 °FPassing clouds.10 mph81%30.01 "HgN/A
9:30 PM41 °FPartly cloudy.12 mph81%30.01 "HgN/A
9:00 PM41 °FPassing clouds.12 mph81%30.01 "HgN/A
8:30 PM39 °FPassing clouds.13 mph87%30.01 "HgN/A
8:00 PM39 °FPassing clouds.14 mph87%30.01 "HgN/A
7:30 PM39 °FPassing clouds.14 mph87%30.01 "HgN/A
7:00 PM39 °FSprinkles. Passing clouds.12 mph93%30.04 "HgN/A
6:30 PM39 °FPartly cloudy.12 mph87%30.04 "HgN/A
6:00 PM41 °FPartly cloudy.10 mph76%30.04 "HgN/A
5:30 PM39 °FPassing clouds.12 mph81%30.04 "HgN/A
5:00 PM39 °FPassing clouds.12 mph81%30.04 "HgN/A
4:30 PM39 °FPassing clouds.12 mph81%30.04 "HgN/A
4:00 PM39 °FPassing clouds.12 mph75%30.04 "HgN/A
3:30 PM39 °FPassing clouds.10 mph75%30.04 "HgN/A
3:00 PM39 °FPartly sunny.14 mph70%30.04 "HgN/A
2:30 PM39 °FPartly sunny.13 mph75%30.04 "HgN/A
2:00 PM39 °FPartly sunny.15 mph75%30.01 "HgN/A
1:30 PM41 °FPartly sunny.15 mph70%30.01 "HgN/A
1:00 PM41 °FPartly sunny.12 mph76%30.01 "HgN/A
12:30 PM41 °FPartly sunny.14 mph76%29.98 "HgN/A
12:00 PM39 °FPartly sunny.14 mph81%29.98 "HgN/A
11:30 AM39 °FBroken clouds.14 mph81%29.98 "HgN/A
11:00 AM39 °FBroken clouds.12 mph81%29.98 "HgN/A
10:30 AM39 °FBroken clouds.12 mph81%29.95 "HgN/A
10:00 AM39 °FBroken clouds.14 mph81%29.95 "HgN/A
9:30 AM39 °FPartly sunny.10 mph81%29.95 "HgN/A
9:00 AM39 °FPartly sunny.12 mph81%29.92 "HgN/A
8:30 AM39 °FBroken clouds.13 mph81%29.89 "HgN/A
8:00 AM37 °FBroken clouds.15 mph87%29.86 "HgN/A
7:30 AM37 °FSprinkles. Passing clouds.14 mph87%29.86 "HgN/A
7:00 AM37 °FPassing clouds.16 mph87%29.83 "HgN/A
6:30 AM37 °FPassing clouds.13 mph93%29.80 "HgN/A
6:00 AM37 °FSprinkles. Partly cloudy.15 mph93%29.80 "HgN/A
5:30 AM37 °FSprinkles. Passing clouds.15 mph93%29.77 "HgN/A
5:00 AM37 °FPassing clouds.14 mph93%29.77 "HgN/A
4:30 AM37 °FLight rain. Passing clouds.17 mph93%29.74 "HgN/A
4:00 AM37 °FSprinkles. Partly cloudy.13 mph93%29.68 "HgN/A
3:30 AM37 °FSprinkles. Partly cloudy.15 mph93%29.68 "HgN/A
3:00 AM37 °FSprinkles. Partly cloudy.16 mph93%29.68 "HgN/A
2:30 AM37 °FSprinkles. Partly cloudy.16 mph93%29.68 "HgN/A
2:00 AM39 °FPassing clouds.14 mph81%29.68 "HgN/A
Weather by CustomWeather, © 2014

See weather overviewHow to use our weather pages